CTN330 EDDB-ENGM

Flight info

Callsign CTN330
Flight time 1h 16m
Altitude 30000
Route SUKIP3Q/06R SUKIP M748 ERNUD M726 NOBRI DCT NEDIK DCT RISMA DCT GIXUN DCT SABAK DCT XENTA DCT REGMA DCT LUNIP LUNIP4M
Aircraft A20N/M-SDE2E3FGHIJ1RWXY/LB1

Departure

Time 2026-05-08 08:44
Airport Berlin Brandenburg Airport (EDDB)

Arrival

Time 2026-05-08 10:01
Airport Oslo-Gardermoen International Airport (ENGM)
Time Latitude Longitude Altitude Speed Heading
2026-05-08 08:27 52.36061 13.51034 155 ft 0 kts 342°
2026-05-08 08:36 52.36052 13.51039 155 ft 3 kts 342°
2026-05-08 08:36 52.36032 13.51050 154 ft 3 kts 341°
2026-05-08 08:37 52.36011 13.51061 154 ft 3 kts 330°
2026-05-08 08:37 52.35995 13.51085 155 ft 3 kts 297°
2026-05-08 08:37 52.35990 13.51120 155 ft 3 kts 256°
2026-05-08 08:37 52.35990 13.51123 155 ft 0 kts 253°
2026-05-08 08:39 52.35990 13.51121 155 ft 1 kts 253°
2026-05-08 08:39 52.35981 13.51070 154 ft 9 kts 253°
2026-05-08 08:40 52.35947 13.50938 154 ft 16 kts 249°
2026-05-08 08:40 52.35887 13.50776 154 ft 14 kts 210°
2026-05-08 08:40 52.35818 13.50768 154 ft 9 kts 211°
2026-05-08 08:40 52.35778 13.50644 153 ft 16 kts 246°
2026-05-08 08:41 52.35735 13.50452 157 ft 20 kts 248°
2026-05-08 08:41 52.35674 13.50209 156 ft 26 kts 247°
2026-05-08 08:41 52.35605 13.49922 154 ft 28 kts 251°
2026-05-08 08:41 52.35536 13.49625 156 ft 28 kts 248°
2026-05-08 08:42 52.35469 13.49341 159 ft 26 kts 249°
2026-05-08 08:42 52.35401 13.49060 159 ft 26 kts 249°
2026-05-08 08:42 52.35333 13.48777 158 ft 27 kts 248°
2026-05-08 08:42 52.35260 13.48502 154 ft 23 kts 225°
2026-05-08 08:43 52.35181 13.48506 158 ft 8 kts 140°
2026-05-08 08:43 52.35132 13.48563 159 ft 10 kts 147°
2026-05-08 08:43 52.35096 13.48679 159 ft 15 kts 100°
2026-05-08 08:43 52.35080 13.48887 159 ft 22 kts 94°
2026-05-08 08:44 52.35127 13.49290 160 ft 69 kts 69°
2026-05-08 08:44 52.35398 13.50433 158 ft 142 kts 69°
2026-05-08 08:44 52.35819 13.52203 355 ft 182 kts 68°
2026-05-08 08:44 52.36151 13.54269 1031 ft 195 kts 92°
2026-05-08 08:45 52.35698 13.56349 1906 ft 200 kts 130°
2026-05-08 08:45 52.34551 13.57576 2853 ft 201 kts 167°
2026-05-08 08:45 52.33191 13.57446 3790 ft 202 kts 203°
2026-05-08 08:45 52.32036 13.56088 4592 ft 214 kts 226°
2026-05-08 08:46 52.31036 13.54119 5265 ft 236 kts 230°
2026-05-08 08:46 52.29825 13.52128 5940 ft 257 kts 221°
2026-05-08 08:46 52.28376 13.50196 6547 ft 279 kts 219°
2026-05-08 08:46 52.26993 13.47819 7059 ft 301 kts 239°
2026-05-08 08:47 52.26264 13.44507 7529 ft 324 kts 263°
2026-05-08 08:47 52.26153 13.40715 7947 ft 347 kts 270°
2026-05-08 08:47 52.26196 13.36646 8303 ft 369 kts 272°
2026-05-08 08:47 52.26261 13.32329 8654 ft 389 kts 271°
2026-05-08 08:48 52.26295 13.27860 9438 ft 395 kts 269°
2026-05-08 08:48 52.25966 13.23379 10277 ft 400 kts 257°
2026-05-08 08:48 52.25095 13.19117 11096 ft 405 kts 246°
2026-05-08 08:48 52.23696 13.15030 11918 ft 410 kts 238°
2026-05-08 08:49 52.22215 13.11098 12714 ft 414 kts 239°
2026-05-08 08:49 52.20727 13.07046 13506 ft 419 kts 243°
2026-05-08 08:49 52.19699 13.02582 14294 ft 424 kts 257°
2026-05-08 08:49 52.19375 12.97791 15064 ft 429 kts 271°
2026-05-08 08:50 52.19775 12.92957 15843 ft 433 kts 285°
2026-05-08 08:50 52.20871 12.88361 16592 ft 438 kts 298°
2026-05-08 08:50 52.22603 12.84244 17330 ft 443 kts 311°
2026-05-08 08:50 52.24876 12.80822 18050 ft 448 kts 323°
2026-05-08 08:51 52.27581 12.78253 18744 ft 453 kts 336°
2026-05-08 08:51 52.30593 12.76671 19419 ft 458 kts 348°
2026-05-08 08:51 52.33780 12.76158 20069 ft 463 kts
2026-05-08 08:51 52.37011 12.76311 20689 ft 467 kts
2026-05-08 08:52 52.40279 12.76243 21283 ft 471 kts 356°
2026-05-08 08:52 52.43556 12.75748 21860 ft 475 kts 352°
2026-05-08 08:52 52.46843 12.74932 22402 ft 479 kts 350°
2026-05-08 08:52 52.50138 12.73938 22902 ft 482 kts 349°
2026-05-08 08:53 52.53395 12.72882 23397 ft 486 kts 348°
2026-05-08 08:53 52.56764 12.71771 23836 ft 489 kts 348°
2026-05-08 08:53 52.60064 12.70682 24204 ft 492 kts 348°
2026-05-08 08:53 52.63428 12.69577 24536 ft 494 kts 348°
2026-05-08 08:54 52.66808 12.68470 24851 ft 495 kts 348°
2026-05-08 08:54 52.70187 12.67365 25212 ft 495 kts 348°
2026-05-08 08:54 52.73562 12.66260 25517 ft 494 kts 348°
2026-05-08 08:54 52.76929 12.65157 25752 ft 493 kts 348°
2026-05-08 08:55 52.80301 12.64051 25980 ft 493 kts 348°
2026-05-08 08:55 52.83670 12.62943 26211 ft 492 kts 348°
2026-05-08 08:55 52.87026 12.61839 26437 ft 492 kts 348°
2026-05-08 08:55 52.90380 12.60733 26663 ft 491 kts 348°
2026-05-08 08:56 52.93739 12.59624 26894 ft 491 kts 348°
2026-05-08 08:56 52.97086 12.58517 27102 ft 491 kts 348°
2026-05-08 08:56 53.00434 12.57408 27326 ft 490 kts 348°
2026-05-08 08:56 53.03776 12.56299 27537 ft 490 kts 348°
2026-05-08 08:57 53.07119 12.55188 27752 ft 489 kts 348°
2026-05-08 08:57 53.10448 12.54080 27956 ft 489 kts 348°
2026-05-08 08:57 53.13784 12.52968 28148 ft 488 kts 348°
2026-05-08 08:57 53.17118 12.51856 28361 ft 488 kts 348°
2026-05-08 08:58 53.20445 12.50743 28555 ft 488 kts 348°
2026-05-08 08:58 53.23766 12.49631 28746 ft 487 kts 348°
2026-05-08 08:58 53.27084 12.48519 28931 ft 487 kts 348°
2026-05-08 08:58 53.30368 12.47416 29116 ft 486 kts 348°
2026-05-08 08:59 53.33728 12.46285 29301 ft 486 kts 348°
2026-05-08 08:59 53.36980 12.45196 30566 ft 478 kts 347°
2026-05-08 08:59 53.40202 12.44114 31067 ft 466 kts 347°
2026-05-08 08:59 53.43355 12.43048 31022 ft 457 kts 347°
2026-05-08 09:00 53.46434 12.42004 30831 ft 447 kts 347°
2026-05-08 09:00 53.49481 12.40969 30264 ft 449 kts 347°
2026-05-08 09:00 53.52580 12.39913 30036 ft 461 kts 347°
2026-05-08 09:00 53.55745 12.38833 30011 ft 468 kts 347°
2026-05-08 09:01 53.62134 12.36656 30022 ft 469 kts 347°
2026-05-08 09:01 53.68533 12.34471 30025 ft 469 kts 347°
2026-05-08 09:02 53.74926 12.32279 30024 ft 469 kts 347°
2026-05-08 09:02 53.81324 12.30081 30026 ft 469 kts 347°
2026-05-08 09:03 53.87724 12.27872 30025 ft 469 kts 347°
2026-05-08 09:03 53.94128 12.25655 30022 ft 470 kts 347°
2026-05-08 09:04 54.00540 12.23430 30027 ft 470 kts 347°
2026-05-08 09:04 54.06907 12.21213 30026 ft 470 kts 347°
2026-05-08 09:05 54.13320 12.18973 30031 ft 471 kts 347°
2026-05-08 09:05 54.19744 12.16723 30033 ft 471 kts 347°
2026-05-08 09:06 54.26180 12.14460 30045 ft 472 kts 347°
2026-05-08 09:06 54.32616 12.12187 30047 ft 472 kts 347°
2026-05-08 09:07 54.39058 12.09906 30047 ft 473 kts 348°
2026-05-08 09:07 54.45505 12.07618 30054 ft 474 kts 348°
2026-05-08 09:08 54.52058 12.06407 30056 ft 475 kts 359°
2026-05-08 09:08 54.58661 12.06209 30057 ft 475 kts 359°
2026-05-08 09:09 54.65267 12.05977 30062 ft 475 kts 359°
2026-05-08 09:09 54.71880 12.05759 30067 ft 475 kts 359°
2026-05-08 09:10 54.78448 12.05548 30069 ft 475 kts 359°
2026-05-08 09:10 54.85067 12.05335 30075 ft 476 kts 360°
2026-05-08 09:11 54.91690 12.05122 30070 ft 476 kts 360°
2026-05-08 09:11 54.98314 12.04908 30075 ft 475 kts 360°
2026-05-08 09:12 55.04939 12.04694 30073 ft 476 kts 360°
2026-05-08 09:12 55.11559 12.04480 30079 ft 475 kts
2026-05-08 09:13 55.18188 12.04264 30077 ft 476 kts
2026-05-08 09:13 55.22574 12.04121 30086 ft 476 kts
2026-05-08 09:14 55.29288 12.03903 30082 ft 476 kts
2026-05-08 09:14 55.35927 12.03685 30081 ft 476 kts
2026-05-08 09:15 55.42551 12.03466 30082 ft 477 kts
2026-05-08 09:15 55.49191 12.03247 30080 ft 476 kts
2026-05-08 09:16 55.55823 12.03028 30083 ft 477 kts
2026-05-08 09:16 55.62455 12.02807 30078 ft 477 kts
2026-05-08 09:17 55.67972 12.02624 30081 ft 477 kts
2026-05-08 09:17 55.74621 12.02402 30078 ft 477 kts
2026-05-08 09:18 55.81265 12.02179 30082 ft 477 kts
2026-05-08 09:18 55.87901 12.01955 30081 ft 478 kts
2026-05-08 09:19 55.94552 12.01732 30086 ft 478 kts
2026-05-08 09:19 56.01209 12.01507 30086 ft 478 kts
2026-05-08 09:20 56.07857 12.01282 30084 ft 478 kts
2026-05-08 09:20 56.14516 12.01056 30089 ft 478 kts
2026-05-08 09:21 56.21135 12.00830 30085 ft 479 kts
2026-05-08 09:23 56.44425 11.98733 30096 ft 481 kts 354°
2026-05-08 09:23 56.51075 11.97215 30095 ft 481 kts 354°
2026-05-08 09:24 56.57722 11.95697 30095 ft 481 kts 354°
2026-05-08 09:24 56.64374 11.94173 30096 ft 482 kts 353°
2026-05-08 09:25 56.70985 11.92652 30096 ft 482 kts 353°
2026-05-08 09:25 56.74295 11.91888 29864 ft 478 kts 353°
2026-05-08 09:25 56.77594 11.91125 29134 ft 478 kts 353°
2026-05-08 09:25 56.80898 11.90360 28271 ft 477 kts 353°
2026-05-08 09:26 56.84209 11.89593 27154 ft 481 kts 353°
2026-05-08 09:26 56.87514 11.88826 26338 ft 478 kts 353°
2026-05-08 09:26 56.90812 11.88059 25548 ft 476 kts 353°
2026-05-08 09:26 56.94152 11.87280 25231 ft 491 kts 353°
2026-05-08 09:27 56.97577 11.86481 25134 ft 500 kts 353°
2026-05-08 09:27 57.01031 11.85673 25221 ft 501 kts 353°
2026-05-08 09:27 57.04487 11.84862 25284 ft 501 kts 353°
2026-05-08 09:27 57.07941 11.84050 25308 ft 500 kts 353°
2026-05-08 09:28 57.11391 11.83238 25291 ft 499 kts 353°
2026-05-08 09:28 57.14829 11.82427 25112 ft 499 kts 353°
2026-05-08 09:28 57.18281 11.81611 25072 ft 501 kts 353°
2026-05-08 09:28 57.21742 11.80791 25066 ft 501 kts 353°
2026-05-08 09:29 57.25204 11.79970 25067 ft 502 kts 353°
2026-05-08 09:29 57.28669 11.79147 25068 ft 501 kts 353°
2026-05-08 09:29 57.32127 11.78323 25066 ft 501 kts 353°
2026-05-08 09:29 57.35591 11.77497 25067 ft 502 kts 353°
2026-05-08 09:30 57.39016 11.76678 25067 ft 502 kts 353°
2026-05-08 09:30 57.42477 11.75850 25067 ft 502 kts 353°
2026-05-08 09:30 57.45947 11.75017 25068 ft 502 kts 353°
2026-05-08 09:30 57.49414 11.74183 25064 ft 502 kts 353°
2026-05-08 09:31 57.52878 11.73349 25062 ft 503 kts 353°
2026-05-08 09:31 57.56350 11.72511 25055 ft 503 kts 353°
2026-05-08 09:31 57.59824 11.71671 25054 ft 503 kts 353°
2026-05-08 09:31 57.63301 11.70829 25054 ft 503 kts 352°
2026-05-08 09:32 57.66780 11.69985 25051 ft 503 kts 352°
2026-05-08 09:32 57.70248 11.69142 25057 ft 503 kts 352°
2026-05-08 09:32 57.73730 11.68294 25041 ft 504 kts 352°
2026-05-08 09:32 57.77213 11.67443 25055 ft 504 kts 352°
2026-05-08 09:33 57.80691 11.66592 25057 ft 504 kts 352°
2026-05-08 09:33 57.84122 11.65751 25042 ft 504 kts 352°
2026-05-08 09:33 57.87601 11.64898 25048 ft 504 kts 352°
2026-05-08 09:33 57.91087 11.64040 25047 ft 504 kts 352°
2026-05-08 09:34 57.94569 11.63181 25050 ft 504 kts 352°
2026-05-08 09:34 57.98049 11.62321 25051 ft 505 kts 352°
2026-05-08 09:34 58.01535 11.61459 25061 ft 505 kts 352°
2026-05-08 09:34 58.05014 11.60597 25062 ft 505 kts 352°
2026-05-08 09:35 58.08499 11.59731 25061 ft 505 kts 352°
2026-05-08 09:35 58.11986 11.58862 25064 ft 505 kts 352°
2026-05-08 09:35 58.15466 11.57994 25063 ft 505 kts 352°
2026-05-08 09:35 58.18946 11.57125 25049 ft 505 kts 352°
2026-05-08 09:36 58.22439 11.56251 25050 ft 505 kts 352°
2026-05-08 09:36 58.25920 11.55378 25060 ft 505 kts 352°
2026-05-08 09:36 58.29404 11.54501 25055 ft 505 kts 352°
2026-05-08 09:36 58.32886 11.53625 25053 ft 505 kts 352°
2026-05-08 09:37 58.36329 11.52755 25062 ft 505 kts 352°
2026-05-08 09:37 58.39852 11.51863 25057 ft 505 kts 352°
2026-05-08 09:37 58.43337 11.50980 25051 ft 505 kts 352°
2026-05-08 09:37 58.46777 11.50106 25065 ft 505 kts 352°
2026-05-08 09:38 58.50256 11.49222 25052 ft 505 kts 352°
2026-05-08 09:38 58.52611 11.48623 25058 ft 505 kts 352°
2026-05-08 09:38 58.54658 11.48101 25051 ft 505 kts 352°
2026-05-08 09:38 58.58147 11.47211 25052 ft 505 kts 352°
2026-05-08 09:39 58.61631 11.46318 25063 ft 505 kts 352°
2026-05-08 09:39 58.65113 11.45425 25063 ft 505 kts 352°
2026-05-08 09:39 58.68603 11.44527 25055 ft 505 kts 352°
2026-05-08 09:39 58.72085 11.43630 25055 ft 505 kts 352°
2026-05-08 09:40 58.75567 11.42730 25049 ft 505 kts 352°
2026-05-08 09:40 58.79042 11.41831 25063 ft 505 kts 351°
2026-05-08 09:40 58.82527 11.40929 25063 ft 505 kts 351°
2026-05-08 09:40 58.86006 11.40024 25049 ft 505 kts 351°
2026-05-08 09:41 58.89497 11.39114 25051 ft 505 kts 351°
2026-05-08 09:41 58.92976 11.38207 25048 ft 504 kts 351°
2026-05-08 09:41 58.96453 11.37299 25058 ft 504 kts 351°
2026-05-08 09:41 58.99897 11.36397 25056 ft 505 kts 351°
2026-05-08 09:42 59.03376 11.35483 25064 ft 504 kts 351°
2026-05-08 09:42 59.06854 11.34569 25053 ft 504 kts 351°
2026-05-08 09:42 59.10333 11.33653 25044 ft 504 kts 351°
2026-05-08 09:42 59.13812 11.32736 25029 ft 504 kts 351°
2026-05-08 09:43 59.17292 11.31817 25015 ft 504 kts 351°
2026-05-08 09:43 59.20780 11.31127 25017 ft 505 kts 358°
2026-05-08 09:43 59.24288 11.31309 24979 ft 503 kts
2026-05-08 09:43 59.27781 11.31575 24505 ft 500 kts
2026-05-08 09:44 59.31205 11.31835 23754 ft 497 kts
2026-05-08 09:44 59.34649 11.32092 22910 ft 492 kts
2026-05-08 09:44 59.38040 11.32342 22085 ft 485 kts
2026-05-08 09:44 59.41403 11.32588 21233 ft 479 kts
2026-05-08 09:45 59.44712 11.32831 20400 ft 473 kts
2026-05-08 09:45 59.47987 11.33073 19588 ft 468 kts
2026-05-08 09:45 59.51215 11.33314 18788 ft 463 kts
2026-05-08 09:45 59.54421 11.33555 17931 ft 457 kts
2026-05-08 09:46 59.57588 11.33792 17085 ft 452 kts
2026-05-08 09:46 59.60680 11.34024 16270 ft 446 kts
2026-05-08 09:46 59.63770 11.34256 15459 ft 442 kts
2026-05-08 09:46 59.66854 11.34489 14694 ft 436 kts
2026-05-08 09:47 59.69832 11.34712 13902 ft 432 kts
2026-05-08 09:47 59.72857 11.34940 13004 ft 428 kts
2026-05-08 09:47 59.75779 11.35161 12163 ft 424 kts
2026-05-08 09:47 59.78720 11.35383 11323 ft 421 kts
2026-05-08 09:48 59.81621 11.35601 10815 ft 410 kts
2026-05-08 09:48 59.84410 11.35813 10605 ft 393 kts
2026-05-08 09:48 59.87091 11.36019 10427 ft 377 kts
2026-05-08 09:48 59.89669 11.36216 10258 ft 362 kts
2026-05-08 09:49 59.92135 11.36406 10108 ft 348 kts
2026-05-08 09:49 59.94507 11.36588 9962 ft 335 kts
2026-05-08 09:49 59.96795 11.36763 9824 ft 322 kts
2026-05-08 09:49 59.98988 11.36930 9698 ft 310 kts
2026-05-08 09:50 60.01116 11.37094 9462 ft 302 kts
2026-05-08 09:50 60.03199 11.37254 9089 ft 299 kts
2026-05-08 09:50 60.05274 11.37412 8703 ft 297 kts
2026-05-08 09:50 60.07335 11.37569 8336 ft 295 kts
2026-05-08 09:51 60.09350 11.37724 7966 ft 293 kts
2026-05-08 09:51 60.11380 11.37880 7606 ft 291 kts
2026-05-08 09:51 60.13399 11.38034 7244 ft 290 kts
2026-05-08 09:51 60.15406 11.38188 6899 ft 287 kts
2026-05-08 09:52 60.17397 11.38341 6551 ft 286 kts
2026-05-08 09:52 60.19385 11.38495 6163 ft 285 kts
2026-05-08 09:52 60.21327 11.38647 6041 ft 274 kts
2026-05-08 09:52 60.23200 11.38797 5933 ft 264 kts
2026-05-08 09:53 60.25001 11.38941 5837 ft 254 kts
2026-05-08 09:53 60.26732 11.39076 5747 ft 244 kts 360°
2026-05-08 09:53 60.28395 11.39203 5648 ft 235 kts 360°
2026-05-08 09:53 60.30006 11.39330 5463 ft 230 kts 360°
2026-05-08 09:54 60.31595 11.39612 5217 ft 228 kts
2026-05-08 09:54 60.33172 11.40006 4954 ft 228 kts
2026-05-08 09:54 60.34739 11.40397 4668 ft 228 kts
2026-05-08 09:54 60.36309 11.40554 4427 ft 224 kts 346°
2026-05-08 09:55 60.37660 11.39240 4214 ft 215 kts 311°
2026-05-08 09:55 60.38495 11.36814 4094 ft 209 kts 288°
2026-05-08 09:55 60.38805 11.33991 4205 ft 203 kts 269°
2026-05-08 09:55 60.38920 11.31191 4220 ft 204 kts 274°
2026-05-08 09:56 60.39151 11.28332 4179 ft 206 kts 275°
2026-05-08 09:56 60.39358 11.25466 4130 ft 204 kts 264°
2026-05-08 09:56 60.38956 11.22848 3956 ft 193 kts 230°
2026-05-08 09:56 60.38074 11.20773 3622 ft 196 kts 225°
2026-05-08 09:57 60.36004 11.17641 3514 ft 198 kts 186°
2026-05-08 09:57 60.34614 11.17508 3484 ft 198 kts 184°
2026-05-08 09:57 60.33264 11.17257 3495 ft 192 kts 186°
2026-05-08 09:58 60.31942 11.16960 3399 ft 191 kts 186°
2026-05-08 09:58 60.30614 11.16668 3149 ft 193 kts 186°
2026-05-08 09:58 60.29280 11.16465 2890 ft 192 kts 181°
2026-05-08 09:58 60.27945 11.16477 2473 ft 192 kts 182°
2026-05-08 09:59 60.26622 11.16289 2105 ft 186 kts 188°
2026-05-08 09:59 60.25441 11.15714 1889 ft 165 kts 198°
2026-05-08 09:59 60.24401 11.14999 1638 ft 151 kts 199°
2026-05-08 09:59 60.23443 11.14303 1381 ft 140 kts 197°
2026-05-08 10:00 60.22574 11.13689 1167 ft 126 kts 195°
2026-05-08 10:00 60.21730 11.13162 943 ft 127 kts 194°
2026-05-08 10:00 60.20905 11.12692 829 ft 121 kts 193°
2026-05-08 10:00 60.20119 11.12246 697 ft 117 kts 194°
2026-05-08 10:01 60.19451 11.11885 685 ft 72 kts 196°
2026-05-08 10:01 60.19161 11.11712 682 ft 15 kts 199°
2026-05-08 10:01 60.19141 11.11698 683 ft 13 kts 200°
2026-05-08 10:01 60.18949 11.11558 679 ft 32 kts 204°
2026-05-08 10:02 60.18895 11.11357 683 ft 9 kts 287°
2026-05-08 10:02 60.18895 11.11346 683 ft 0 kts 279°
2026-05-08 10:02 60.18896 11.11337 682 ft 3 kts 279°
2026-05-08 10:02 60.18928 11.11206 681 ft 17 kts 326°
2026-05-08 10:03 60.19064 11.11235 685 ft 24 kts 17°
2026-05-08 10:03 60.19223 11.11328 686 ft 24 kts 16°
2026-05-08 10:03 60.19329 11.11388 686 ft 23 kts 15°
2026-05-08 10:03 60.19466 11.11413 683 ft 14 kts 319°
2026-05-08 10:04 60.19485 11.11272 686 ft 12 kts 282°
2026-05-08 10:04 60.19510 11.11064 684 ft 19 kts 285°
2026-05-08 10:04 60.19572 11.10693 682 ft 19 kts 287°
2026-05-08 10:04 60.19596 11.10531 679 ft 19 kts 286°
2026-05-08 10:05 60.19636 11.10243 682 ft 15 kts 287°
2026-05-08 10:05 60.19639 11.10216 677 ft 0 kts 284°
2026-05-08 10:05 60.19637 11.10228 677 ft 1 kts 285°
2026-05-08 10:05 60.19638 11.10227 677 ft 0 kts 285°